#datetime,building,power
2021-12-15T00:00:00,ths,5.09
2021-12-15T00:01:00,ths,5.92
2021-12-15T00:02:00,ths,6.52
2021-12-15T00:03:00,ths,6.58
2021-12-15T00:04:00,ths,6.68
2021-12-15T00:05:00,ths,7.83
2021-12-15T00:06:00,ths,8.66
2021-12-15T00:07:00,ths,8.64
2021-12-15T00:08:00,ths,8.76
2021-12-15T00:09:00,ths,8.72
2021-12-15T00:10:00,ths,8.67
2021-12-15T00:11:00,ths,7.98
2021-12-15T00:12:00,ths,6.70
2021-12-15T00:13:00,ths,6.69
2021-12-15T00:14:00,ths,6.70
2021-12-15T00:15:00,ths,5.56
2021-12-15T00:16:00,ths,5.52
2021-12-15T00:17:00,ths,5.85
2021-12-15T00:18:00,ths,5.73
2021-12-15T00:19:00,ths,6.30
2021-12-15T00:20:00,ths,6.34
2021-12-15T00:21:00,ths,6.57
2021-12-15T00:22:00,ths,6.39
2021-12-15T00:23:00,ths,5.73
2021-12-15T00:24:00,ths,5.82
2021-12-15T00:25:00,ths,5.71
2021-12-15T00:26:00,ths,5.76
2021-12-15T00:27:00,ths,5.58
2021-12-15T00:28:00,ths,4.93
2021-12-15T00:29:00,ths,5.71
2021-12-15T00:30:00,ths,5.70
2021-12-15T00:31:00,ths,5.93
2021-12-15T00:32:00,ths,5.92
2021-12-15T00:33:00,ths,6.48
2021-12-15T00:34:00,ths,6.54
2021-12-15T00:35:00,ths,6.52
2021-12-15T00:36:00,ths,8.81
2021-12-15T00:37:00,ths,8.11
2021-12-15T00:38:00,ths,8.08
2021-12-15T00:39:00,ths,8.08
2021-12-15T00:40:00,ths,7.35
2021-12-15T00:41:00,ths,7.68
2021-12-15T00:42:00,ths,7.53
2021-12-15T00:43:00,ths,6.61
2021-12-15T00:44:00,ths,6.80
2021-12-15T00:45:00,ths,6.85
2021-12-15T00:46:00,ths,8.28
2021-12-15T00:47:00,ths,7.47
2021-12-15T00:48:00,ths,7.25
2021-12-15T00:49:00,ths,7.13
2021-12-15T00:50:00,ths,6.38
2021-12-15T00:51:00,ths,6.48
2021-12-15T00:52:00,ths,6.11
2021-12-15T00:53:00,ths,5.38
2021-12-15T00:54:00,ths,5.37
2021-12-15T00:55:00,ths,5.35
2021-12-15T00:56:00,ths,5.19
2021-12-15T00:57:00,ths,6.78
2021-12-15T00:58:00,ths,6.74
2021-12-15T00:59:00,ths,6.81
2021-12-15T01:00:00,ths,6.83
2021-12-15T01:01:00,ths,7.28
2021-12-15T01:02:00,ths,8.48
2021-12-15T01:03:00,ths,8.48
2021-12-15T01:04:00,ths,8.25
2021-12-15T01:05:00,ths,7.89
2021-12-15T01:06:00,ths,7.76
2021-12-15T01:07:00,ths,6.91
2021-12-15T01:08:00,ths,6.88
2021-12-15T01:09:00,ths,5.93
2021-12-15T01:10:00,ths,5.94
2021-12-15T01:11:00,ths,5.68
2021-12-15T01:12:00,ths,5.68
2021-12-15T01:13:00,ths,5.67
2021-12-15T01:14:00,ths,5.66
2021-12-15T01:15:00,ths,5.85
2021-12-15T01:16:00,ths,6.43
2021-12-15T01:17:00,ths,6.45
2021-12-15T01:18:00,ths,6.60
2021-12-15T01:19:00,ths,5.96
2021-12-15T01:20:00,ths,5.72
2021-12-15T01:21:00,ths,4.97
2021-12-15T01:22:00,ths,4.95
2021-12-15T01:23:00,ths,4.99
2021-12-15T01:24:00,ths,4.79
2021-12-15T01:25:00,ths,4.91
2021-12-15T01:26:00,ths,4.96
2021-12-15T01:27:00,ths,5.58
2021-12-15T01:28:00,ths,6.38
2021-12-15T01:29:00,ths,7.67
2021-12-15T01:30:00,ths,8.23
2021-12-15T01:31:00,ths,8.23
2021-12-15T01:32:00,ths,8.19
2021-12-15T01:33:00,ths,7.56
2021-12-15T01:34:00,ths,6.82
2021-12-15T01:35:00,ths,7.46
2021-12-15T01:36:00,ths,6.21
2021-12-15T01:37:00,ths,5.68
2021-12-15T01:38:00,ths,4.85
2021-12-15T01:39:00,ths,5.40
2021-12-15T01:40:00,ths,5.32
2021-12-15T01:41:00,ths,5.08
2021-12-15T01:42:00,ths,4.97
2021-12-15T01:43:00,ths,5.46
2021-12-15T01:44:00,ths,5.68
2021-12-15T01:45:00,ths,5.13
2021-12-15T01:46:00,ths,5.74
2021-12-15T01:47:00,ths,6.29
2021-12-15T01:48:00,ths,6.08
2021-12-15T01:49:00,ths,5.45
2021-12-15T01:50:00,ths,4.82
2021-12-15T01:51:00,ths,5.19
2021-12-15T01:52:00,ths,5.75
2021-12-15T01:53:00,ths,5.29
2021-12-15T01:54:00,ths,5.22
2021-12-15T01:55:00,ths,5.21
2021-12-15T01:56:00,ths,5.23
2021-12-15T01:57:00,ths,5.95
2021-12-15T01:58:00,ths,5.88
2021-12-15T01:59:00,ths,5.66
2021-12-15T02:00:00,ths,5.81
2021-12-15T02:01:00,ths,6.47
2021-12-15T02:02:00,ths,6.65
2021-12-15T02:03:00,ths,6.22
2021-12-15T02:04:00,ths,5.48
2021-12-15T02:05:00,ths,5.54
2021-12-15T02:06:00,ths,5.21
2021-12-15T02:07:00,ths,4.97
2021-12-15T02:08:00,ths,6.00
2021-12-15T02:09:00,ths,5.96
2021-12-15T02:10:00,ths,5.91
2021-12-15T02:11:00,ths,5.88
2021-12-15T02:12:00,ths,5.91
2021-12-15T02:13:00,ths,7.10
2021-12-15T02:14:00,ths,5.94
2021-12-15T02:15:00,ths,5.98
2021-12-15T02:16:00,ths,6.01
2021-12-15T02:17:00,ths,6.58
2021-12-15T02:18:00,ths,5.73
2021-12-15T02:19:00,ths,5.98
2021-12-15T02:20:00,ths,5.71
2021-12-15T02:21:00,ths,4.93
2021-12-15T02:22:00,ths,4.87
2021-12-15T02:23:00,ths,4.99
2021-12-15T02:24:00,ths,4.75
2021-12-15T02:25:00,ths,5.87
2021-12-15T02:26:00,ths,6.06
2021-12-15T02:27:00,ths,6.16
2021-12-15T02:28:00,ths,6.07
2021-12-15T02:29:00,ths,6.06
2021-12-15T02:30:00,ths,6.06
2021-12-15T02:31:00,ths,4.72
2021-12-15T02:32:00,ths,4.91
2021-12-15T02:33:00,ths,5.38
2021-12-15T02:34:00,ths,5.38
2021-12-15T02:35:00,ths,5.33
2021-12-15T02:36:00,ths,5.28
2021-12-15T02:37:00,ths,5.38
2021-12-15T02:38:00,ths,4.69
2021-12-15T02:39:00,ths,4.69
2021-12-15T02:40:00,ths,4.68
2021-12-15T02:41:00,ths,4.61
2021-12-15T02:42:00,ths,4.85
2021-12-15T02:43:00,ths,5.06
2021-12-15T02:44:00,ths,5.04
2021-12-15T02:45:00,ths,5.03
2021-12-15T02:46:00,ths,4.98
2021-12-15T02:47:00,ths,5.03
2021-12-15T02:48:00,ths,5.08
2021-12-15T02:49:00,ths,5.49
2021-12-15T02:50:00,ths,5.32
2021-12-15T02:51:00,ths,5.43
2021-12-15T02:52:00,ths,6.59
2021-12-15T02:53:00,ths,5.83
2021-12-15T02:54:00,ths,6.70
2021-12-15T02:55:00,ths,6.59
2021-12-15T02:56:00,ths,6.44
2021-12-15T02:57:00,ths,6.42
2021-12-15T02:58:00,ths,6.50
2021-12-15T02:59:00,ths,6.41
2021-12-15T03:00:00,ths,6.41
2021-12-15T03:01:00,ths,6.33
2021-12-15T03:02:00,ths,6.33
2021-12-15T03:03:00,ths,6.27
2021-12-15T03:04:00,ths,6.32
2021-12-15T03:05:00,ths,6.02
2021-12-15T03:06:00,ths,5.30
2021-12-15T03:07:00,ths,5.39
2021-12-15T03:08:00,ths,5.43
2021-12-15T03:09:00,ths,5.24
2021-12-15T03:10:00,ths,4.66
2021-12-15T03:11:00,ths,4.75
2021-12-15T03:12:00,ths,4.76
2021-12-15T03:13:00,ths,4.73
2021-12-15T03:14:00,ths,4.73
2021-12-15T03:15:00,ths,4.73
2021-12-15T03:16:00,ths,4.58
2021-12-15T03:17:00,ths,4.66
2021-12-15T03:18:00,ths,5.75
2021-12-15T03:19:00,ths,5.80
2021-12-15T03:20:00,ths,5.99
2021-12-15T03:21:00,ths,5.98
2021-12-15T03:22:00,ths,6.50
2021-12-15T03:23:00,ths,6.50
2021-12-15T03:24:00,ths,6.31
2021-12-15T03:25:00,ths,5.24
2021-12-15T03:26:00,ths,4.76
2021-12-15T03:27:00,ths,4.61
2021-12-15T03:28:00,ths,4.57
2021-12-15T03:29:00,ths,5.40
2021-12-15T03:30:00,ths,5.24
2021-12-15T03:31:00,ths,5.24
2021-12-15T03:32:00,ths,5.25
2021-12-15T03:33:00,ths,5.21
2021-12-15T03:34:00,ths,5.02
2021-12-15T03:35:00,ths,5.02
2021-12-15T03:36:00,ths,5.11
2021-12-15T03:37:00,ths,5.11
2021-12-15T03:38:00,ths,5.31
2021-12-15T03:39:00,ths,4.51
2021-12-15T03:40:00,ths,5.06
2021-12-15T03:41:00,ths,5.04
2021-12-15T03:42:00,ths,5.02
2021-12-15T03:43:00,ths,4.81
2021-12-15T03:44:00,ths,5.36
2021-12-15T03:45:00,ths,5.40
2021-12-15T03:46:00,ths,5.54
2021-12-15T03:47:00,ths,5.54
2021-12-15T03:48:00,ths,5.57
2021-12-15T03:49:00,ths,5.86
2021-12-15T03:50:00,ths,5.98
2021-12-15T03:51:00,ths,5.75
2021-12-15T03:52:00,ths,5.06
2021-12-15T03:53:00,ths,5.03
2021-12-15T03:54:00,ths,5.44
2021-12-15T03:55:00,ths,5.44
2021-12-15T03:56:00,ths,5.14
2021-12-15T03:57:00,ths,5.24
2021-12-15T03:58:00,ths,4.70
2021-12-15T03:59:00,ths,4.84
2021-12-15T04:00:00,ths,4.86
2021-12-15T04:01:00,ths,4.78
2021-12-15T04:02:00,ths,5.61
2021-12-15T04:03:00,ths,5.61
2021-12-15T04:04:00,ths,6.64
2021-12-15T04:05:00,ths,6.48
2021-12-15T04:06:00,ths,6.51
2021-12-15T04:07:00,ths,6.66
2021-12-15T04:08:00,ths,7.22
2021-12-15T04:09:00,ths,7.29
2021-12-15T04:10:00,ths,7.25
2021-12-15T04:11:00,ths,8.17
2021-12-15T04:12:00,ths,5.80
2021-12-15T04:13:00,ths,5.86
2021-12-15T04:14:00,ths,5.67
2021-12-15T04:15:00,ths,5.67
2021-12-15T04:16:00,ths,5.63
2021-12-15T04:17:00,ths,5.42
2021-12-15T04:18:00,ths,4.45
2021-12-15T04:19:00,ths,4.45
2021-12-15T04:20:00,ths,4.37
2021-12-15T04:21:00,ths,4.36
2021-12-15T04:22:00,ths,4.55
2021-12-15T04:23:00,ths,4.80
2021-12-15T04:24:00,ths,5.24
2021-12-15T04:25:00,ths,5.23
2021-12-15T04:26:00,ths,5.22
2021-12-15T04:27:00,ths,4.96
2021-12-15T04:28:00,ths,4.38
2021-12-15T04:29:00,ths,4.35
2021-12-15T04:30:00,ths,4.34
2021-12-15T04:31:00,ths,4.33
2021-12-15T04:32:00,ths,4.31
2021-12-15T04:33:00,ths,4.56
2021-12-15T04:34:00,ths,4.49
2021-12-15T04:35:00,ths,4.49
2021-12-15T04:36:00,ths,6.68
2021-12-15T04:37:00,ths,7.27
2021-12-15T04:38:00,ths,7.41
2021-12-15T04:39:00,ths,8.37
2021-12-15T04:40:00,ths,7.99
2021-12-15T04:41:00,ths,7.19
2021-12-15T04:42:00,ths,7.20
2021-12-15T04:43:00,ths,5.98
2021-12-15T04:44:00,ths,5.94
2021-12-15T04:45:00,ths,5.93
2021-12-15T04:46:00,ths,4.83
2021-12-15T04:47:00,ths,4.15
2021-12-15T04:48:00,ths,4.29
2021-12-15T04:49:00,ths,4.25
2021-12-15T04:50:00,ths,5.37
2021-12-15T04:51:00,ths,5.30
2021-12-15T04:52:00,ths,5.50
2021-12-15T04:53:00,ths,5.49
2021-12-15T04:54:00,ths,6.10
2021-12-15T04:55:00,ths,6.04
2021-12-15T04:56:00,ths,6.04
2021-12-15T04:57:00,ths,5.04
2021-12-15T04:58:00,ths,4.29
2021-12-15T04:59:00,ths,4.36
2021-12-15T05:00:00,ths,4.51
2021-12-15T05:01:00,ths,4.49
2021-12-15T05:02:00,ths,4.62
2021-12-15T05:03:00,ths,4.61
2021-12-15T05:04:00,ths,5.44
2021-12-15T05:05:00,ths,5.37
2021-12-15T05:06:00,ths,5.37
2021-12-15T05:07:00,ths,5.48
2021-12-15T05:08:00,ths,6.70
2021-12-15T05:09:00,ths,7.29
2021-12-15T05:10:00,ths,7.16
2021-12-15T05:11:00,ths,6.93
2021-12-15T05:12:00,ths,5.99
2021-12-15T05:13:00,ths,5.89
2021-12-15T05:14:00,ths,5.28
2021-12-15T05:15:00,ths,4.97
2021-12-15T05:16:00,ths,5.09
2021-12-15T05:17:00,ths,5.13
2021-12-15T05:18:00,ths,5.00
2021-12-15T05:19:00,ths,4.39
2021-12-15T05:20:00,ths,4.38
2021-12-15T05:21:00,ths,4.36
2021-12-15T05:22:00,ths,4.69
2021-12-15T05:23:00,ths,5.27
2021-12-15T05:24:00,ths,5.24
2021-12-15T05:25:00,ths,5.19
2021-12-15T05:26:00,ths,5.25
2021-12-15T05:27:00,ths,5.07
2021-12-15T05:28:00,ths,4.46
2021-12-15T05:29:00,ths,4.50
2021-12-15T05:30:00,ths,4.75
2021-12-15T05:31:00,ths,6.02
2021-12-15T05:32:00,ths,7.15
2021-12-15T05:33:00,ths,7.04
2021-12-15T05:34:00,ths,7.01
2021-12-15T05:35:00,ths,7.00
2021-12-15T05:36:00,ths,6.99
2021-12-15T05:37:00,ths,6.78
2021-12-15T05:38:00,ths,7.01
2021-12-15T05:39:00,ths,6.77
2021-12-15T05:40:00,ths,5.33
2021-12-15T05:41:00,ths,6.29
2021-12-15T05:42:00,ths,7.35
2021-12-15T05:43:00,ths,7.05
2021-12-15T05:44:00,ths,6.66
2021-12-15T05:45:00,ths,6.65
2021-12-15T05:46:00,ths,6.49
2021-12-15T05:47:00,ths,6.57
2021-12-15T05:48:00,ths,6.63
2021-12-15T05:49:00,ths,6.42
2021-12-15T05:50:00,ths,5.46
2021-12-15T05:51:00,ths,4.54
2021-12-15T05:52:00,ths,4.51
2021-12-15T05:53:00,ths,4.50
2021-12-15T05:54:00,ths,4.52
2021-12-15T05:55:00,ths,4.61
2021-12-15T05:56:00,ths,5.13
2021-12-15T05:57:00,ths,5.11
2021-12-15T05:58:00,ths,4.99
2021-12-15T05:59:00,ths,5.00
2021-12-15T06:00:00,ths,4.54
2021-12-15T06:01:00,ths,5.48
2021-12-15T06:02:00,ths,5.48
2021-12-15T06:03:00,ths,5.39
2021-12-15T06:04:00,ths,5.39
2021-12-15T06:05:00,ths,5.53
2021-12-15T06:06:00,ths,5.54
2021-12-15T06:07:00,ths,5.53
2021-12-15T06:08:00,ths,4.43
2021-12-15T06:09:00,ths,5.48
2021-12-15T06:10:00,ths,5.33
2021-12-15T06:11:00,ths,5.49
2021-12-15T06:12:00,ths,5.40
2021-12-15T06:13:00,ths,6.73
2021-12-15T06:14:00,ths,5.88
2021-12-15T06:15:00,ths,5.90
2021-12-15T06:16:00,ths,5.88
2021-12-15T06:17:00,ths,5.20
2021-12-15T06:18:00,ths,5.19
2021-12-15T06:19:00,ths,5.38
2021-12-15T06:20:00,ths,5.27
2021-12-15T06:21:00,ths,5.27
2021-12-15T06:22:00,ths,5.35
2021-12-15T06:23:00,ths,4.61
2021-12-15T06:24:00,ths,4.55
2021-12-15T06:25:00,ths,4.52
2021-12-15T06:26:00,ths,4.51
2021-12-15T06:27:00,ths,4.36
2021-12-15T06:28:00,ths,6.74
2021-12-15T06:29:00,ths,7.16
2021-12-15T06:30:00,ths,7.37
2021-12-15T06:31:00,ths,7.25
2021-12-15T06:32:00,ths,7.24
2021-12-15T06:33:00,ths,7.13
2021-12-15T06:34:00,ths,6.53
2021-12-15T06:35:00,ths,4.37
2021-12-15T06:36:00,ths,4.29
2021-12-15T06:37:00,ths,4.25
2021-12-15T06:38:00,ths,4.33
2021-12-15T06:39:00,ths,4.35
2021-12-15T06:40:00,ths,4.31
2021-12-15T06:41:00,ths,4.51
2021-12-15T06:42:00,ths,4.71
2021-12-15T06:43:00,ths,4.71
2021-12-15T06:44:00,ths,5.25
2021-12-15T06:45:00,ths,5.25
2021-12-15T06:46:00,ths,5.23
2021-12-15T06:47:00,ths,6.02
2021-12-15T06:48:00,ths,5.34
2021-12-15T06:49:00,ths,5.41
2021-12-15T06:50:00,ths,5.42
2021-12-15T06:51:00,ths,5.45
2021-12-15T06:52:00,ths,5.41
2021-12-15T06:53:00,ths,5.45
2021-12-15T06:54:00,ths,5.44
2021-12-15T06:55:00,ths,5.40
2021-12-15T06:56:00,ths,5.64
2021-12-15T06:57:00,ths,6.04
2021-12-15T06:58:00,ths,6.05
2021-12-15T06:59:00,ths,6.56
2021-12-15T07:00:00,ths,6.56
2021-12-15T07:01:00,ths,6.56
2021-12-15T07:02:00,ths,6.63
2021-12-15T07:03:00,ths,4.87
2021-12-15T07:04:00,ths,4.70
2021-12-15T07:05:00,ths,4.59
2021-12-15T07:06:00,ths,4.58
2021-12-15T07:07:00,ths,4.53
2021-12-15T07:08:00,ths,4.52
2021-12-15T07:09:00,ths,4.49
2021-12-15T07:10:00,ths,4.34
2021-12-15T07:11:00,ths,4.30
2021-12-15T07:12:00,ths,4.24
2021-12-15T07:13:00,ths,4.43
2021-12-15T07:14:00,ths,5.09
2021-12-15T07:15:00,ths,6.30
2021-12-15T07:16:00,ths,6.44
2021-12-15T07:17:00,ths,6.43
2021-12-15T07:18:00,ths,5.73
2021-12-15T07:19:00,ths,6.50
2021-12-15T07:20:00,ths,6.49
2021-12-15T07:21:00,ths,6.53
2021-12-15T07:22:00,ths,5.37
2021-12-15T07:23:00,ths,5.14
2021-12-15T07:24:00,ths,6.17
2021-12-15T07:25:00,ths,6.19
2021-12-15T07:26:00,ths,6.12
2021-12-15T07:27:00,ths,6.14
2021-12-15T07:28:00,ths,6.30
2021-12-15T07:29:00,ths,5.92
2021-12-15T07:30:00,ths,5.73
2021-12-15T07:31:00,ths,4.80
2021-12-15T07:32:00,ths,4.78
2021-12-15T07:33:00,ths,4.22
2021-12-15T07:34:00,ths,4.24
2021-12-15T07:35:00,ths,4.28
2021-12-15T07:36:00,ths,4.25
2021-12-15T07:37:00,ths,4.29
2021-12-15T07:38:00,ths,4.28
2021-12-15T07:39:00,ths,4.23
2021-12-15T07:40:00,ths,4.23
2021-12-15T07:41:00,ths,4.55
2021-12-15T07:42:00,ths,4.50
2021-12-15T07:43:00,ths,5.09
2021-12-15T07:44:00,ths,5.15
2021-12-15T07:45:00,ths,5.14
2021-12-15T07:46:00,ths,5.11
2021-12-15T07:47:00,ths,4.22
2021-12-15T07:48:00,ths,4.27
2021-12-15T07:49:00,ths,4.29
2021-12-15T07:50:00,ths,4.45
2021-12-15T07:51:00,ths,5.62
2021-12-15T07:52:00,ths,6.42
2021-12-15T07:53:00,ths,6.40
2021-12-15T07:54:00,ths,6.34
2021-12-15T07:55:00,ths,6.49
2021-12-15T07:56:00,ths,6.46
2021-12-15T07:57:00,ths,6.20
2021-12-15T07:58:00,ths,6.09
2021-12-15T07:59:00,ths,6.19
2021-12-15T08:00:00,ths,6.53
2021-12-15T08:01:00,ths,6.21
2021-12-15T08:02:00,ths,6.18
2021-12-15T08:03:00,ths,6.12
2021-12-15T08:04:00,ths,5.97
2021-12-15T08:05:00,ths,4.90
2021-12-15T08:06:00,ths,4.38
2021-12-15T08:07:00,ths,4.35
2021-12-15T08:08:00,ths,4.37
2021-12-15T08:09:00,ths,4.21
2021-12-15T08:10:00,ths,4.35
2021-12-15T08:11:00,ths,4.36
2021-12-15T08:12:00,ths,4.30
2021-12-15T08:13:00,ths,4.28
2021-12-15T08:14:00,ths,4.46
2021-12-15T08:15:00,ths,5.09
2021-12-15T08:16:00,ths,5.06
2021-12-15T08:17:00,ths,4.85
2021-12-15T08:18:00,ths,4.84
2021-12-15T08:19:00,ths,5.23
2021-12-15T08:20:00,ths,5.17
2021-12-15T08:21:00,ths,5.17
2021-12-15T08:22:00,ths,5.25
2021-12-15T08:23:00,ths,5.47
2021-12-15T08:24:00,ths,6.49
2021-12-15T08:25:00,ths,6.45
2021-12-15T08:26:00,ths,6.06
2021-12-15T08:27:00,ths,6.08
2021-12-15T08:28:00,ths,6.11
2021-12-15T08:29:00,ths,5.41
2021-12-15T08:30:00,ths,5.45
2021-12-15T08:31:00,ths,6.00
2021-12-15T08:32:00,ths,5.95
2021-12-15T08:33:00,ths,5.83
2021-12-15T08:34:00,ths,5.88
2021-12-15T08:35:00,ths,5.29
2021-12-15T08:36:00,ths,4.43
2021-12-15T08:37:00,ths,4.36
2021-12-15T08:38:00,ths,4.37
2021-12-15T08:39:00,ths,4.34
2021-12-15T08:40:00,ths,4.29
2021-12-15T08:41:00,ths,4.29
2021-12-15T08:42:00,ths,4.23
2021-12-15T08:43:00,ths,4.29
2021-12-15T08:44:00,ths,4.17
2021-12-15T08:45:00,ths,4.93
2021-12-15T08:46:00,ths,6.06
2021-12-15T08:47:00,ths,7.13
2021-12-15T08:48:00,ths,7.12
2021-12-15T08:49:00,ths,7.41
2021-12-15T08:50:00,ths,7.48
2021-12-15T08:51:00,ths,7.47
2021-12-15T08:52:00,ths,7.26
2021-12-15T08:53:00,ths,6.28
2021-12-15T08:54:00,ths,5.42
2021-12-15T08:55:00,ths,5.45
2021-12-15T08:56:00,ths,5.39
2021-12-15T08:57:00,ths,4.38
2021-12-15T08:58:00,ths,4.30
2021-12-15T08:59:00,ths,4.38
2021-12-15T09:00:00,ths,5.72
2021-12-15T09:01:00,ths,5.59
2021-12-15T09:02:00,ths,5.65
2021-12-15T09:03:00,ths,5.59
2021-12-15T09:04:00,ths,5.36
2021-12-15T09:05:00,ths,4.76
2021-12-15T09:06:00,ths,4.78
2021-12-15T09:07:00,ths,4.08
2021-12-15T09:08:00,ths,3.99
2021-12-15T09:09:00,ths,4.00
2021-12-15T09:10:00,ths,3.94
2021-12-15T09:11:00,ths,3.93
2021-12-15T09:12:00,ths,3.97
2021-12-15T09:13:00,ths,3.97
2021-12-15T09:14:00,ths,3.97
2021-12-15T09:15:00,ths,5.11
2021-12-15T09:16:00,ths,5.15
2021-12-15T09:17:00,ths,5.20
2021-12-15T09:18:00,ths,5.25
2021-12-15T09:19:00,ths,5.40
2021-12-15T09:20:00,ths,5.36
2021-12-15T09:21:00,ths,5.68
2021-12-15T09:22:00,ths,4.79
2021-12-15T09:23:00,ths,4.79
2021-12-15T09:24:00,ths,4.78
2021-12-15T09:25:00,ths,4.21
2021-12-15T09:26:00,ths,4.20
2021-12-15T09:27:00,ths,4.28
2021-12-15T09:28:00,ths,4.28
2021-12-15T09:29:00,ths,5.06
2021-12-15T09:30:00,ths,5.17
2021-12-15T09:31:00,ths,4.98
2021-12-15T09:32:00,ths,6.19
2021-12-15T09:33:00,ths,6.19
2021-12-15T09:34:00,ths,6.16
2021-12-15T09:35:00,ths,6.33
2021-12-15T09:36:00,ths,6.42
2021-12-15T09:37:00,ths,6.43
2021-12-15T09:38:00,ths,6.36
2021-12-15T09:39:00,ths,5.32
2021-12-15T09:40:00,ths,6.33
2021-12-15T09:41:00,ths,7.10
2021-12-15T09:42:00,ths,7.08
2021-12-15T09:43:00,ths,7.11
2021-12-15T09:44:00,ths,7.23
2021-12-15T09:45:00,ths,7.31
2021-12-15T09:46:00,ths,7.82
2021-12-15T09:47:00,ths,7.95
2021-12-15T09:48:00,ths,6.92
2021-12-15T09:49:00,ths,6.53
2021-12-15T09:50:00,ths,4.50
2021-12-15T09:51:00,ths,4.47
2021-12-15T09:52:00,ths,4.32
2021-12-15T09:53:00,ths,4.32
2021-12-15T09:54:00,ths,4.30
2021-12-15T09:55:00,ths,4.30
2021-12-15T09:56:00,ths,4.36
2021-12-15T09:57:00,ths,4.42
2021-12-15T09:58:00,ths,4.40
2021-12-15T09:59:00,ths,4.38
2021-12-15T10:00:00,ths,5.12
2021-12-15T10:01:00,ths,5.21
2021-12-15T10:02:00,ths,5.43
2021-12-15T10:03:00,ths,5.48
2021-12-15T10:04:00,ths,5.99
2021-12-15T10:05:00,ths,5.99
2021-12-15T10:06:00,ths,5.99
2021-12-15T10:07:00,ths,5.18
2021-12-15T10:08:00,ths,5.26
2021-12-15T10:09:00,ths,6.46
2021-12-15T10:10:00,ths,6.44
2021-12-15T10:11:00,ths,6.42
2021-12-15T10:12:00,ths,6.28
2021-12-15T10:13:00,ths,6.32
2021-12-15T10:14:00,ths,6.40
2021-12-15T10:15:00,ths,5.55
2021-12-15T10:16:00,ths,4.55
2021-12-15T10:17:00,ths,4.66
2021-12-15T10:18:00,ths,4.83
2021-12-15T10:19:00,ths,4.86
2021-12-15T10:20:00,ths,5.23
2021-12-15T10:21:00,ths,4.87
2021-12-15T10:22:00,ths,4.64
2021-12-15T10:23:00,ths,4.64
2021-12-15T10:24:00,ths,4.48
2021-12-15T10:25:00,ths,4.62
2021-12-15T10:26:00,ths,5.40
2021-12-15T10:27:00,ths,5.38
2021-12-15T10:28:00,ths,5.33
2021-12-15T10:29:00,ths,5.25
2021-12-15T10:30:00,ths,5.27
2021-12-15T10:31:00,ths,5.20
2021-12-15T10:32:00,ths,5.33
2021-12-15T10:33:00,ths,5.31
2021-12-15T10:34:00,ths,5.81
2021-12-15T10:35:00,ths,5.44
2021-12-15T10:36:00,ths,5.40
2021-12-15T10:37:00,ths,6.58
2021-12-15T10:38:00,ths,6.56
2021-12-15T10:39:00,ths,6.51
2021-12-15T10:40:00,ths,7.64
2021-12-15T10:41:00,ths,6.56
2021-12-15T10:42:00,ths,7.53
2021-12-15T10:43:00,ths,7.45
2021-12-15T10:44:00,ths,5.21
2021-12-15T10:45:00,ths,6.88
2021-12-15T10:46:00,ths,6.99
2021-12-15T10:47:00,ths,7.23
2021-12-15T10:48:00,ths,7.22
2021-12-15T10:49:00,ths,6.14
2021-12-15T10:50:00,ths,6.24
2021-12-15T10:51:00,ths,7.05
2021-12-15T10:52:00,ths,6.91
2021-12-15T10:53:00,ths,6.89
2021-12-15T10:54:00,ths,6.85
2021-12-15T10:55:00,ths,6.70
2021-12-15T10:56:00,ths,7.10
2021-12-15T10:57:00,ths,7.35
2021-12-15T10:58:00,ths,7.30
2021-12-15T10:59:00,ths,7.28
2021-12-15T11:00:00,ths,6.49
2021-12-15T11:01:00,ths,6.45
2021-12-15T11:02:00,ths,6.38
2021-12-15T11:03:00,ths,5.27
2021-12-15T11:04:00,ths,6.77
2021-12-15T11:05:00,ths,7.02
2021-12-15T11:06:00,ths,7.04
2021-12-15T11:07:00,ths,5.56
2021-12-15T11:08:00,ths,5.55
2021-12-15T11:09:00,ths,4.61
2021-12-15T11:10:00,ths,7.44
2021-12-15T11:11:00,ths,5.85
2021-12-15T11:12:00,ths,5.70
2021-12-15T11:13:00,ths,5.81
2021-12-15T11:14:00,ths,5.89
2021-12-15T11:15:00,ths,5.97
2021-12-15T11:16:00,ths,5.51
2021-12-15T11:17:00,ths,5.67
2021-12-15T11:18:00,ths,5.57
2021-12-15T11:19:00,ths,5.54
2021-12-15T11:20:00,ths,5.67
2021-12-15T11:21:00,ths,5.79
2021-12-15T11:22:00,ths,5.07
2021-12-15T11:23:00,ths,5.15
2021-12-15T11:24:00,ths,5.54
2021-12-15T11:25:00,ths,5.33
2021-12-15T11:26:00,ths,5.69
2021-12-15T11:27:00,ths,5.46
2021-12-15T11:28:00,ths,4.85
2021-12-15T11:29:00,ths,5.81
2021-12-15T11:30:00,ths,5.79
2021-12-15T11:31:00,ths,5.66
2021-12-15T11:32:00,ths,5.52
2021-12-15T11:33:00,ths,5.80
2021-12-15T11:34:00,ths,5.66
2021-12-15T11:35:00,ths,5.89
2021-12-15T11:36:00,ths,6.02
2021-12-15T11:37:00,ths,5.22
2021-12-15T11:38:00,ths,7.20
2021-12-15T11:39:00,ths,7.89
2021-12-15T11:40:00,ths,8.58
2021-12-15T11:41:00,ths,10.70
2021-12-15T11:42:00,ths,7.13
2021-12-15T11:43:00,ths,6.81
2021-12-15T11:44:00,ths,6.69
2021-12-15T11:45:00,ths,9.72
2021-12-15T11:46:00,ths,8.07
2021-12-15T11:47:00,ths,6.76
2021-12-15T11:48:00,ths,5.42
2021-12-15T11:49:00,ths,6.66
2021-12-15T11:50:00,ths,7.79
2021-12-15T11:51:00,ths,8.38
2021-12-15T11:52:00,ths,8.77
2021-12-15T11:53:00,ths,7.87
2021-12-15T11:54:00,ths,8.35
2021-12-15T11:55:00,ths,8.40
2021-12-15T11:56:00,ths,7.89
2021-12-15T11:57:00,ths,6.02
2021-12-15T11:58:00,ths,5.04
2021-12-15T11:59:00,ths,4.98
2021-12-15T12:00:00,ths,5.02
2021-12-15T12:01:00,ths,4.95
2021-12-15T12:02:00,ths,4.95
2021-12-15T12:03:00,ths,5.11
2021-12-15T12:04:00,ths,4.93
2021-12-15T12:05:00,ths,5.06
2021-12-15T12:06:00,ths,5.11
2021-12-15T12:07:00,ths,5.00
2021-12-15T12:08:00,ths,5.17
2021-12-15T12:09:00,ths,6.16
2021-12-15T12:10:00,ths,6.67
2021-12-15T12:11:00,ths,10.78
2021-12-15T12:12:00,ths,10.80
2021-12-15T12:13:00,ths,16.74
2021-12-15T12:14:00,ths,11.76
2021-12-15T12:15:00,ths,16.19
2021-12-15T12:16:00,ths,16.04
2021-12-15T12:17:00,ths,16.08
2021-12-15T12:18:00,ths,16.24
2021-12-15T12:19:00,ths,17.36
2021-12-15T12:20:00,ths,15.06
2021-12-15T12:21:00,ths,16.62
2021-12-15T12:22:00,ths,18.47
2021-12-15T12:23:00,ths,18.61
2021-12-15T12:24:00,ths,16.55
2021-12-15T12:25:00,ths,14.42
2021-12-15T12:26:00,ths,14.94
2021-12-15T12:27:00,ths,14.39
2021-12-15T12:28:00,ths,15.50
2021-12-15T12:29:00,ths,15.87
2021-12-15T12:30:00,ths,16.69
2021-12-15T12:31:00,ths,14.89
2021-12-15T12:32:00,ths,15.63
2021-12-15T12:33:00,ths,15.68
2021-12-15T12:34:00,ths,13.75
2021-12-15T12:35:00,ths,15.69
2021-12-15T12:36:00,ths,15.67
2021-12-15T12:37:00,ths,15.66
2021-12-15T12:38:00,ths,16.92
2021-12-15T12:39:00,ths,17.48
2021-12-15T12:40:00,ths,17.25
2021-12-15T12:41:00,ths,17.16
2021-12-15T12:42:00,ths,16.05
2021-12-15T12:43:00,ths,15.92
2021-12-15T12:44:00,ths,11.36
2021-12-15T12:45:00,ths,9.44
2021-12-15T12:46:00,ths,9.62
2021-12-15T12:47:00,ths,12.85
2021-12-15T12:48:00,ths,14.10
2021-12-15T12:49:00,ths,12.23
2021-12-15T12:50:00,ths,11.56
2021-12-15T12:51:00,ths,10.33
2021-12-15T12:52:00,ths,10.35
2021-12-15T12:53:00,ths,9.67
2021-12-15T12:54:00,ths,9.66
2021-12-15T12:55:00,ths,10.08
2021-12-15T12:56:00,ths,10.52
2021-12-15T12:57:00,ths,14.52
2021-12-15T12:58:00,ths,10.53
2021-12-15T12:59:00,ths,10.33
2021-12-15T13:00:00,ths,5.17
2021-12-15T13:01:00,ths,5.20
2021-12-15T13:02:00,ths,5.11
2021-12-15T13:03:00,ths,5.01
2021-12-15T13:04:00,ths,9.32
2021-12-15T13:05:00,ths,13.38
2021-12-15T13:06:00,ths,13.32
2021-12-15T13:07:00,ths,13.32
2021-12-15T13:08:00,ths,9.40
2021-12-15T13:09:00,ths,9.37
2021-12-15T13:10:00,ths,9.38
2021-12-15T13:11:00,ths,9.40
2021-12-15T13:12:00,ths,9.54
2021-12-15T13:13:00,ths,10.59
2021-12-15T13:14:00,ths,10.65
2021-12-15T13:15:00,ths,11.15
2021-12-15T13:16:00,ths,11.19
2021-12-15T13:17:00,ths,11.13
2021-12-15T13:18:00,ths,11.08
2021-12-15T13:19:00,ths,10.27
2021-12-15T13:20:00,ths,13.66
2021-12-15T13:21:00,ths,13.51
2021-12-15T13:22:00,ths,13.46
2021-12-15T13:23:00,ths,13.97
2021-12-15T13:24:00,ths,13.51
2021-12-15T13:25:00,ths,9.42
2021-12-15T13:26:00,ths,9.29
2021-12-15T13:27:00,ths,9.35
2021-12-15T13:28:00,ths,13.50
2021-12-15T13:29:00,ths,13.54
2021-12-15T13:30:00,ths,13.48
2021-12-15T13:31:00,ths,13.47
2021-12-15T13:32:00,ths,9.52
2021-12-15T13:33:00,ths,9.51
2021-12-15T13:34:00,ths,14.12
2021-12-15T13:35:00,ths,14.13
2021-12-15T13:36:00,ths,14.27
2021-12-15T13:37:00,ths,9.93
2021-12-15T13:38:00,ths,11.15
2021-12-15T13:39:00,ths,12.04
2021-12-15T13:40:00,ths,14.31
2021-12-15T13:41:00,ths,14.35
2021-12-15T13:42:00,ths,14.28
2021-12-15T13:43:00,ths,10.24